Content
SEND FEEDBACK

Mexico Flag

MORELIA, MICHOACAN


Home > North America > Mexico > Michoacan
Elevation: 6275 feet     Latitude: 19 42N     Longitude: 101 11W

WEATHER
 
SELECT A DAY
Number of Records: 167,776;   Date Range: 1/1/95 - 3/22/16
 
SHARE

PRINT THIS DATA

[ ← Previous Day ]
WEATHER ALMANAC - APRIL 1, 2013
[ Next Day → ]
[ °C ]   °F
Weather ElementAverageHighLow
Temperature68.7 °F88 °F (11:55 am)46.4 °F (6:42 am)
Dewpoint42.6 °F54 °F (5:50 pm)35.6 °F (1:40 am)
Humidity40.2 %76 % (5:43 am)10 % (2:55 pm)
Barometer29.95 in30.26 in (9:40 am)29.58 in (5:50 pm)
Wind Speed3.9 mph11.5 mph (4:45 pm)
Weather ElementAverage
Visibility7.4 mi
Wind DirectionESE (113.9 °)

Weather ElementTotal
Precipitation---
Cooling Degree Days2.2 (Base 65)
Growing Degree Days17.2 (Base 50)
Averaged from 31 records on April 1, 2013
WEATHER CONDITIONS BREAKOUT
WIND DIRECTION BREAKOUT
WEATHER BY HOUR - APRIL 1, 2013
[ °C ]   °F
Local TimeTemperatureDewpointHumidityBarometerVisibilityWind DirectionWind SpeedGust SpeedPrecipitationEventsConditions
1:40 AM55.4 °F35.6 °F47 %30.19 in8.0 miCalmClear
2:40 AM55.4 °F41.0 °F58 %29.68 in8.0 miCalmClear
2:50 AM60.0 °F45.0 °F46 %29.78 in5.0 miSSW (210°)2.2 mph
3:40 AM55.4 °F41.0 °F58 %30.18 in8.0 miCalmClear
4:40 AM51.8 °F39.2 °F62 %30.18 in8.0 miCalmClear
5:43 AM48.2 °F41.0 °F76 %29.81 in8.0 miCalmClear
5:50 AM55.0 °F43.0 °F54 %29.87 in5.0 miSW (220°)4.5 mph
6:42 AM46.4 °F37.4 °F71 %30.22 in8.0 miCalmClear
7:46 AM53.6 °F41.0 °F62 %30.24 in8.0 miCalmClear
8:54 AM62.6 °F41.0 °F45 %29.81 in8.0 miVariable2.3 mphScattered Clouds
8:55 AM62.0 °F45.0 °F43 %29.96 in6.0 miSouth (180°)6.7 mph
9:40 AM69.8 °F42.8 °F38 %30.26 in8.0 miCalmScattered Clouds
10:42 AM75.2 °F42.8 °F31 %30.24 in8.0 miCalmScattered Clouds
11:43 AM80.6 °F37.4 °F21 %29.76 in8.0 miVariable3.5 mphScattered Clouds
11:55 AM88.0 °F41.0 °F11 %29.86 in9.0 miSouth (180°)6.7 mph
12:40 PM82.4 °F37.4 °F20 %30.18 in8.0 miWNW (290°)5.8 mphScattered Clouds
1:43 PM86.0 °F39.2 °F19 %30.13 in8.0 miNNW (330°)5.8 mphMostly Cloudy
2:50 PM86.0 °F37.4 °F18 %29.69 in8.0 miCalmMostly Cloudy
2:55 PM88.0 °F40.0 °F10 %29.66 in9.0 miESE (120°)6.7 mphPartly Cloudy
3:45 PM80.6 °F41.0 °F24 %30.08 in8.0 miSouth (170°)6.9 mphMostly Cloudy
4:45 PM78.8 °F44.6 °F30 %30.08 in8.0 miSouth (170°)11.5 mphMostly Cloudy
5:47 PM75.2 °F44.6 °F34 %29.71 in8.0 miSouth (180°)9.2 mphMostly Cloudy
5:50 PM79.0 °F54.0 °F32 %29.58 in7.0 miWest (270°)4.5 mphPartly Cloudy
6:45 PM77.0 °F41.0 °F28 %30.12 in8.0 miNW (320°)9.2 mphMostly Cloudy
7:45 PM71.6 °F44.6 °F38 %30.15 in7.0 miSouth (190°)8.1 mphMostly Cloudy
8:45 PM69.8 °F44.6 °F40 %29.72 in7.0 miNNE (20°)5.8 mphMostly Cloudy
8:50 PM72.0 °F52.0 °F39 %29.60 in5.0 miSSW (210°)4.5 mphPartly Cloudy
9:45 PM66.2 °F46.4 °F49 %30.18 in7.0 miNorth (10°)5.8 mphMostly Cloudy
10:41 PM64.4 °F46.4 °F52 %30.18 in7.0 miSouth (180°)5.8 mphMostly Cloudy
11:46 PM64.4 °F44.6 °F49 %29.70 in7.0 miCalmMostly Cloudy
11:50 PM68.0 °F49.0 °F40 %29.67 in5.0 miWest (280°)4.5 mphPartly Cloudy
Hourly data recorded from MMMM, located miles away from Morelia, Michoacan




STORIES FROM OUR PARTNERS